F5MAP-5 Weather Reports


Display with metric or nautical units.
time (UTC)temp
F
wind
direction
speed
MPH
gust
MPH
rain 1hr
in
rain 24hr
in
rain mn
in
humidity
%
barometer
mb
20260506230211 50 194 7.0 15.0 0.01 0.13 0.01 94 1011.6
20260506225211 50 195 7.0 13.0 0.01 0.13 0.01 94 1011.6
20260506224212 50 202 6.0 13.0 0.02 0.13 0.01 94 1011.6
20260506223211 50 196 6.0 12.0 0.01 0.13 0.01 94 1011.7
20260506222210 50 178 8.0 14.0 0.01 0.13 0.00 94 1011.6
20260506221213 50 222 6.0 14.0 0.01 0.13 0.00 94 1011.5
20260506220212 50 218 7.0 15.0 0.01 0.12 0.00 94 1011.4
20260506215212 50 247 9.0 14.0 0.01 0.12 0.12 94 1011.3
20260506214211 50 221 7.0 15.0 0.00 0.12 0.12 94 1011.2
20260506213212 51 208 7.0 15.0 0.01 0.12 0.12 93 1011.2
20260506212211 51 248 8.0 17.0 0.00 0.11 0.11 93 1011.1
20260506211211 51 231 6.0 16.0 0.01 0.11 0.11 93 1011.0
20260506210211 51 203 6.0 12.0 0.01 0.11 0.11 93 1010.9
20260506205212 51 219 6.0 12.0 0.01 0.11 0.11 93 1011.0
20260506204213 51 245 8.0 13.0 0.02 0.11 0.11 93 1010.9
20260506203212 51 207 7.0 12.0 0.02 0.11 0.11 93 1010.8
20260506202212 51 190 6.0 13.0 0.02 0.11 0.11 93 1010.8
20260506201212 51 232 8.0 13.0 0.01 0.11 0.11 93 1010.8
20260506200212 51 225 8.0 13.0 0.01 0.10 0.10 93 1010.7
20260506195212 51 192 7.0 13.0 0.01 0.10 0.10 93 1010.7
20260506194211 51 210 6.0 11.0 0.01 0.10 0.10 93 1010.6
20260506193211 51 246 6.0 13.0 0.01 0.09 0.09 93 1010.5
20260506192213 52 220 4.0 11.0 0.02 0.09 0.09 93 1010.4
20260506191211 52 229 6.0 13.0 0.02 0.09 0.09 92 1010.2
20260506190211 52 192 5.0 11.0 0.02 0.09 0.09 92 1010.1
20260506185212 52 215 5.0 10.0 0.03 0.09 0.09 92 1010.1
20260506184211 52 227 6.0 12.0 0.03 0.09 0.09 92 1010.0
20260506183211 52 234 7.0 13.0 0.03 0.08 0.08 92 1009.9
20260506182211 52 233 7.0 17.0 0.03 0.08 0.08 92 1009.8
20260506181211 52 212 7.0 16.0 0.03 0.07 0.07 92 1009.7
20260506180211 52 222 7.0 14.0 0.03 0.07 0.07 92 1009.6
20260506175210 52 242 8.0 13.0 0.03 0.06 0.06 92 1009.5
20260506174210 52 269 8.0 15.0 0.03 0.06 0.06 91 1009.4
20260506173210 53 228 7.0 14.0 0.03 0.05 0.05 91 1009.3
20260506172210 53 211 6.0 13.0 0.03 0.05 0.05 91 1009.2
20260506171210 53 248 9.0 14.0 0.03 0.04 0.04 91 1009.2
20260506170210 53 237 6.0 12.0 0.03 0.04 0.04 91 1009.1
20260506165210 53 221 5.0 12.0 0.03 0.03 0.03 91 1009.0
20260506164210 53 236 7.0 13.0 0.03 0.03 0.03 90 1009.0
20260506163210 54 244 8.0 14.0 0.02 0.02 0.02 90 1008.9
20260506162210 54 178 8.0 13.0 0.02 0.02 0.02 90 1008.9
20260506161210 54 206 7.0 13.0 0.01 0.01 0.01 90 1008.9
20260506160210 54 243 9.0 16.0 0.01 0.01 0.01 89 1008.9
20260506155210 54 221 6.0 12.0 0.00 0.00 0.00 89 1008.9
20260506154210 55 213 6.0 13.0 0.00 0.00 0.00 89 1008.8
20260506153210 55 204 6.0 11.0 0.00 0.00 0.00 88 1008.7
20260506152210 55 234 7.0 12.0 0.00 0.00 0.00 88 1008.7
20260506151210 55 199 5.0 12.0 0.00 0.00 0.00 87 1008.6
20260506150209 55 227 6.0 16.0 0.00 0.00 0.00 87 1008.6
20260506145212 55 250 7.0 13.0 0.00 0.00 0.00 87 1008.5
20260506144211 55 202 8.0 14.0 0.00 0.00 0.00 86 1008.5
20260506143211 55 234 9.0 15.0 0.00 0.00 0.00 87 1008.4
20260506142210 55 206 7.0 14.0 0.00 0.00 0.00 86 1008.3
20260506141210 55 218 9.0 15.0 0.00 0.00 0.00 86 1008.3
20260506140211 56 202 7.0 17.0 0.00 0.00 0.00 86 1008.2
20260506135214 56 186 11.0 17.0 0.00 0.00 0.00 86 1008.1
20260506134214 56 235 9.0 20.0 0.00 0.00 0.00 86 1008.1
20260506133214 56 225 10.0 18.0 0.00 0.00 0.00 87 1008.0
20260506132213 56 230 8.0 17.0 0.00 0.00 0.00 87 1008.0
20260506131215 56 283 10.0 16.0 0.00 0.00 0.00 87 1007.9
20260506130214 56 268 10.0 16.0 0.00 0.00 0.00 87 1007.8
20260506125214 57 222 9.0 15.0 0.00 0.00 0.00 87 1007.7
20260506124214 57 246 8.0 19.0 0.00 0.00 0.00 87 1007.6
20260506123214 58 228 9.0 16.0 0.00 0.00 0.00 87 1007.6
20260506122214 58 280 6.0 19.0 0.00 0.00 0.00 87 1007.4
20260506121213 58 267 9.0 17.0 0.00 0.00 0.00 86 1007.3
20260506120213 58 238 10.0 15.0 0.00 0.00 0.00 86 1007.3
20260506115214 58 195 9.0 16.0 0.00 0.00 0.00 85 1007.4
20260506114214 59 273 9.0 18.0 0.00 0.00 0.00 84 1007.3
20260506113214 59 258 9.0 16.0 0.00 0.00 0.00 83 1007.2
20260506112213 59 252 7.0 16.0 0.00 0.00 0.00 82 1007.1
20260506111213 59 225 12.0 18.0 0.00 0.00 0.00 80 1007.2
20260506110213 60 235 7.0 14.0 0.00 0.00 0.00 80 1007.1
20260506105213 60 182 9.0 16.0 0.00 0.00 0.00 79 1007.2
20260506104213 60 223 7.0 12.0 0.00 0.00 0.00 79 1007.1
20260506103213 60 236 9.0 15.0 0.00 0.00 0.00 80 1007.0
20260506102213 60 291 5.0 12.0 0.00 0.00 0.00 80 1007.0
20260506101213 60 250 6.0 12.0 0.00 0.00 0.00 80 1006.9
20260506100220 60 211 4.0 9.0 0.00 0.00 0.00 80 1006.9
20260506095213 60 226 7.0 12.0 0.00 0.00 0.00 79 1006.8
20260506094213 60 234 4.0 10.0 0.00 0.00 0.00 78 1006.8
20260506093213 60 238 6.0 13.0 0.00 0.00 0.00 77 1006.7
20260506092213 60 211 7.0 12.0 0.00 0.00 0.00 77 1006.7
20260506091212 61 203 4.0 12.0 0.00 0.00 0.00 77 1006.7
20260506090212 61 196 8.0 12.0 0.00 0.00 0.00 78 1006.5
20260506085213 61 198 7.0 12.0 0.00 0.00 0.00 78 1006.5
20260506084213 60 205 6.0 11.0 0.00 0.00 0.00 79 1006.4
20260506083213 60 196 6.0 11.0 0.00 0.00 0.00 80 1006.2
20260506082212 60 238 7.0 13.0 0.00 0.00 0.00 80 1006.2
20260506081213 60 229 7.0 11.0 0.00 0.00 0.00 81 1006.2
20260506080212 60 236 4.0 12.0 0.00 0.00 0.00 82 1006.2
20260506073213 59 233 7.0 14.0 0.00 0.00 0.00 87 1006.3
20260506072213 58 250 7.0 14.0 0.00 0.00 0.00 89 1006.3
20260506071213 58 234 6.0 13.0 0.00 0.00 0.00 91 1006.3
20260506070213 57 255 3.0 10.0 0.00 0.00 0.00 92 1006.2
20260506062213 54 178 6.0 10.0 0.00 0.00 0.00 92 1006.4
20260506061213 53 246 3.0 9.0 0.00 0.00 0.00 92 1006.6
20260506060213 53 186 5.0 8.0 0.00 0.00 0.00 92 1006.6
20260506051212 51 236 1.0 4.0 0.00 0.00 0.00 91 1006.4
20260506050212 51 221 3.0 7.0 0.00 0.00 0.00 91 1006.6
20260506044214 51 171 4.0 7.0 0.00 0.00 0.00 91 1006.7
20260506043213 51 204 3.0 6.0 0.00 0.00 0.00 91 1006.8
20260506042212 51 169 3.0 8.0 0.00 0.00 0.00 91 1006.8
20260506041213 51 203 3.0 6.0 0.00 0.00 0.00 90 1006.7
20260506040212 51 198 4.0 7.0 0.00 0.00 0.00 90 1006.8
20260506035213 51 229 2.0 6.0 0.00 0.00 0.00 90 1006.9
20260506034213 51 180 3.0 7.0 0.00 0.00 0.00 90 1007.0
20260506033212 51 222 4.0 7.0 0.00 0.00 0.00 90 1007.0
20260506032212 51 198 5.0 8.0 0.00 0.00 0.00 90 1006.9
20260506031212 51 217 4.0 7.0 0.00 0.00 0.00 90 1006.9
20260506030212 52 175 4.0 9.0 0.00 0.00 0.00 90 1007.0
20260506025213 52 202 3.0 6.0 0.00 0.00 0.00 89 1006.9
20260506024213 52 181 3.0 6.0 0.00 0.00 0.00 89 1007.1
20260506023213 52 190 3.0 6.0 0.00 0.00 0.00 89 1007.1
20260506022212 52 178 2.0 5.0 0.00 0.00 0.00 89 1007.2
20260506021212 53 234 2.0 7.0 0.00 0.00 0.00 89 1007.3
20260506020212 53 204 3.0 7.0 0.00 0.00 0.00 89 1007.6
20260506015212 53 204 4.0 7.0 0.00 0.00 0.00 89 1007.7
20260506014212 53 217 4.0 8.0 0.00 0.00 0.00 89 1007.8
20260506013212 53 196 3.0 10.0 0.00 0.00 0.00 89 1007.9
20260506012212 53 213 4.0 8.0 0.00 0.00 0.00 89 1008.0
20260506011212 53 217 3.0 7.0 0.00 0.00 0.00 89 1008.1
20260506010213 54 236 4.0 7.0 0.00 0.00 0.00 89 1008.0
20260506005212 54 219 5.0 9.0 0.00 0.00 0.00 89 1007.9
20260506004211 54 218 4.0 8.0 0.00 0.00 0.00 89 1007.9
20260506003212 54 209 4.0 8.0 0.00 0.00 0.00 89 1008.0
20260506002212 54 192 4.0 9.0 0.00 0.00 0.00 89 1008.0
20260506001212 54 183 5.0 10.0 0.00 0.00 0.00 89 1008.2
20260506000212 54 187 4.0 8.0 0.00 0.00 0.00 90 1008.4
20260505235211 54 247 4.0 8.0 0.00 0.00 0.00 90 1008.4
20260505234211 54 210 4.0 10.0 0.00 0.00 0.00 90 1008.5
20260505233212 54 200 4.0 10.0 0.00 0.00 0.00 90 1008.8
20260505232212 54 215 4.0 10.0 0.00 0.00 0.00 90 1008.8
20260505231211 54 216 6.0 11.0 0.00 0.00 0.00 90 1008.9